Regional Weather Roundup
Issued by NWS

Home | Current Version | Previous Version | Graphics & Text | Print | Product List | Glossary On
Versions: 1 2 3 4 5 6 7 8 9 10 11 12 13 14 15 16 17 18 19 20 21 22 23 24 25 26 27 28 29 30 31 32 33 34 35 36 37 38 39 40 41 42 43 44 45 46 47 48 49 50
000
ASUS45 KTFX 270510
RWRMT
MONTANA REGIONAL WEATHER ROUNDUP
NATIONAL WEATHER SERVICE GREAT FALLS MT
1100 PM MDT THU MAY 26 2016

NOTE: "FAIR" INDICATES FEW OR NO CLOUDS BELOW 12000 FEET WITH NO
SIGNIFICANT WEATHER AND/OR OBSTRUCTIONS TO VISIBILITY.

MTZ001>007-043-270600-
WEST OF THE DIVIDE

CITY           SKY/WX    TMP DP  RH WIND       PRES   REMARKS
KALISPELL      CLOUDY    51  51 100 CALM      29.91S
MISSOULA       CLOUDY    51  49  92 N6        29.96R
BUTTE          CLOUDY    50  42  74 N8        29.99R
MULLAN PASS    CLOUDY    41  38  89 VRB5      30.00S
ANACONDA         N/A     46  43  87 NW3       29.99S
DEER LODGE       N/A     50  43  76 CALM      30.00R VSB 1
EUREKA           N/A     55  45  67 SE8         N/A
HAMILTON         N/A     55  43  62 CALM      29.94S
LIBBY            N/A     54  43  66 CALM      29.91S
$$

MTZ008-052>055-270600-
SOUTHWEST MONTANA

CITY           SKY/WX    TMP DP  RH WIND       PRES   REMARKS
BOZEMAN        PTCLDY    47  43  86 CALM      29.95S
DILLON         CLOUDY    49  39  68 E9        29.95S
W YELLOWSTONE  CLOUDY    41  41 100 CALM      30.04F
ENNIS          CLOUDY    50  41  71 S9G17     30.03S
$$

MTZ009-010-012-014-046-048-049-054-270600-
EAST SLOPES AND CENTRAL MONTANA

CITY           SKY/WX    TMP DP  RH WIND       PRES   REMARKS
CUT BANK       PTCLDY    48  45  89 S5        29.90S
GREAT FALLS    MOCLDY    50  44  80 SW8       29.92F
MALMSTROM AFB  MOCLDY    51  49  92 S10       29.91F
HELENA         CLOUDY    56  46  69 W7        29.94R
CHOTEAU          N/A     48  48 100 SW3       29.93R
$$

MTZ011-013-016-021-045-047-050-051-270600-
NORTH CENTRAL MONTANA

CITY           SKY/WX    TMP DP  RH WIND       PRES   REMARKS
HAVRE          CLOUDY    57  50  77 E6        29.90S
LEWISTOWN      CLEAR     47  42  83 SE5       29.94S
N BAR RANCH      N/A     45  43  93 W7        29.97S
CHINOOK          N/A     54  48  82 E5        29.91S
$$

MTZ017>020-022>027-061-062-270600-
NORTHEAST MONTANA

CITY           SKY/WX    TMP DP  RH WIND       PRES   REMARKS
GLASGOW        CLOUDY    54  49  83 NE12      29.87R
JORDAN           N/A     54  51  90 NW8       29.87R
SIDNEY         CLOUDY    54  51  90 N7        29.84F
WOLF POINT     MOCLDY    56  50  80 NE8       29.87R
$$

MTZ028>42-056>058-270600-
SOUTHCENTRAL AND SOUTHEAST MONTANA

CITY           SKY/WX    TMP DP  RH WIND       PRES   REMARKS
BAKER          CLOUDY    48  45  89 CALM      29.88R
BILLINGS       CLEAR     54  44  69 E5        29.93S
LIVINGSTON     CLEAR     44  39  82 S8        29.95R
MILES CITY     CLEAR     53  48  83 W5        29.86F
FORSYTH          N/A     54  48  82 SW5       29.88F
$$

REGIONAL REPORTS...DAKOTAS

CITY           SKY/WX    TMP DP  RH WIND       PRES   REMARKS
WILLISTON      CLOUDY    51  47  86 N9        29.86R
MINOT          CLOUDY    57  53  86 CALM      29.83S
DICKINSON      CLOUDY    49  43  80 CALM      29.84S
BEACH            N/A     48  48 100 CALM      29.89R
CROSBY           N/A     48  48 100 W5        29.89R
WATFORD CITY     N/A     48  48 100 CALM      29.86R
BISMARCK       CLEAR     56  50  80 N6        29.82F
GRAND FORKS    MOCLDY    58  55  90 CALM      29.78F
FARGO          MOCLDY    66  53  63 N8        29.77R
BUFFALO SD       N/A     56  42  59 NW5       29.82R
RAPID CITY     CLEAR     53  44  71 N12       29.87S
$$

REGIONAL REPORTS...WYOMING/IDAHO/WASHINGTON

CITY           SKY/WX    TMP DP  RH WIND       PRES   REMARKS
GILLETTE       MOCLDY    45  39  79 W7        29.92F
SHERIDAN       CLOUDY    54  44  69 W10       29.93S
BUFFALO WY     CLOUDY    52  43  71 W3        29.95F
CODY           CLOUDY    48  37  66 CALM      29.95F
YELLOWSTONE LA   N/A     34  32  92 CALM      30.11F
IDAHO FALLS    CLOUDY    55  41  59 S9        29.94S
SALMON         CLOUDY    61  36  39 SE3       29.91R
BOISE          PTCLDY    65  39  38 E3        29.90S
SPOKANE        MOCLDY    58  40  51 SW14      29.91S
$$

REGIONAL REPORTS...ALBERTA

CITY           SKY/WX    TMP DP  RH WIND       PRES   REMARKS
EDMONTON       RAIN      57  48  72 SW9       29.80R
CALGARY        MOCLDY    54  45  71 SE3       29.80S
LETHBRIDGE     MOCLDY    52  46  82 SW17      29.83S
MEDICINE HAT   CLOUDY    59  50  72 S8        29.85S
WATERTON GATE    N/A     48  39  71 SW13G20     N/A
MILK RIVER       N/A     50  45  81 S6          N/A
$$

REGIONAL REPORTS...SASKATCHEWAN

CITY           SKY/WX    TMP DP  RH WIND       PRES   REMARKS
SWIFT CURRENT  CLEAR     50  46  87 S8        29.91R
REGINA         MOCLDY    52  50  93 W7        29.87S
SASKATOON      MOCLDY    61  50  67 SW5       29.87R
CYPRESS HILLS    N/A     46  41  81 SE5         N/A
VAL MARIE        N/A     45  43  93 NE2         N/A
ROCKGLEN         N/A     48  46  93 CALM        N/A
ASSINIBOIA       N/A     57  52  82 SW13G18     N/A
$$



USA.gov is the U.S. government's official web portal to all federal, state and local government web resources and services.